Weather History for Garden City, KS

Change the Weather History Date:

Sunday, August 25, 2013

  Actual Average Record
Temperature  
Mean Temperature 81 °F 76 °F  
Max Temperature 94 °F 89 °F 106 °F (1973)
Min Temperature 67 °F 62 °F 49 °F (1985)
Degree Days  
Heating Degree Days 0 0  
Month to date heating degree days 0 0  
Since 1 June heating degree days 12 17  
Since 1 July heating degree days 0 1  
Cooling Degree Days 16 11  
Month to date cooling degree days 258 306  
Year to date cooling degree days 1240 1057  
Since 1 June cooling degree days 1093 968  
Growing Degree Days 30 (Base 50)    
Moisture  
Dew Point 60 °F    
Average Humidity 56    
Maximum Humidity 81    
Minimum Humidity 30    
Precipitation  
Precipitation 0.00 in 0.06 in 1.50 in (1979)
Month to date precipitation 4.92 2.08  
Year to date precipitation 10.16 15.28  
Sea Level Pressure  
Sea Level Pressure 30.03 in    
Wind  
Wind Speed 13 mph (South)    
Max Wind Speed 24 mph    
Max Gust Speed 31 mph    
Visibility 10 miles    
Events      
T = Trace of Precipitation, MM = Missing Value Source: NWS Daily Summary

Daily Weather History Graph

Daily Weather History Graph

Search for Another Location

Airport:

Trip Planner

Search our weather history database for the weather conditions in past years. The results will help you decide how hot, cold, wet, or windy it might be!

Date:

Astronomy

Aug. 25, 2013 Rise Set
Actual Time 7:07 AM CDT 8:22 PM CDT
Civil Twilight 6:39 AM CDT 8:49 PM CDT
Nautical Twilight 6:07 AM CDT 9:21 PM CDT
Astronomical Twilight 5:32 AM CDT 9:55 PM CDT
Moon 11:00 PM CDT (8/25) 12:04 PM CDT (8/25)
Length of Visible Light 14h 09m
Length of Day
13h 14m
Waning Gibbous, 75% of the Moon is Illuminated
Aug 25
Waning Gibbous
Aug 28
Last Quarter
Sep 5
New
Sep 12
First Quarter
Sep 19
Full

Hourly Weather History & Observations

Time (CDT) Temp. Heat Index Dew Point Humidity Pressure Visibility Wind Dir Wind Speed Gust Speed Precip Events Conditions
12:54 AM 75.0 °F - 61.0 °F 62% 30.01 in 10.0 mi SSE 12.7 mph - N/A   Clear
1:54 AM 73.9 °F - 63.0 °F 68% 30.02 in 10.0 mi South 11.5 mph - N/A   Clear
2:54 AM 72.0 °F - 63.0 °F 73% 30.03 in 10.0 mi South 10.4 mph - N/A   Clear
3:54 AM 72.0 °F - 62.1 °F 71% 30.02 in 10.0 mi SSE 8.1 mph - N/A   Clear
4:54 AM 71.1 °F - 61.0 °F 70% 30.02 in 10.0 mi South 11.5 mph - N/A   Clear
5:54 AM 69.1 °F - 61.0 °F 75% 30.04 in 10.0 mi SSE 5.8 mph - N/A   Clear
6:54 AM 66.9 °F - 61.0 °F 81% 30.06 in 8.0 mi South 4.6 mph - N/A   Clear
7:54 AM 69.1 °F - 61.0 °F 75% 30.08 in 8.0 mi South 8.1 mph - N/A   Clear
8:54 AM 75.0 °F - 62.1 °F 64% 30.08 in 10.0 mi South 10.4 mph - N/A   Clear
9:54 AM 80.1 °F 81.2 °F 62.1 °F 54% 30.07 in 10.0 mi SSW 20.7 mph 25.3 mph N/A   Clear
10:54 AM 84.0 °F 84.5 °F 62.1 °F 47% 30.08 in 10.0 mi SSW 18.4 mph 26.5 mph N/A   Clear
11:54 AM 87.1 °F 87.5 °F 62.1 °F 43% 30.06 in 10.0 mi SSW 20.7 mph 29.9 mph N/A   Clear
12:54 PM 90.0 °F 90.3 °F 62.1 °F 39% 30.04 in 10.0 mi SSW 16.1 mph 25.3 mph N/A   Clear
1:54 PM 91.9 °F 91.5 °F 60.1 °F 34% 30.03 in 10.0 mi SSW 19.6 mph 26.5 mph N/A   Clear
2:54 PM 93.0 °F 91.7 °F 57.0 °F 30% 30.02 in 10.0 mi SSW 20.7 mph 29.9 mph N/A   Clear
3:54 PM 93.0 °F 92.0 °F 57.9 °F 31% 30.00 in 10.0 mi South 16.1 mph 27.6 mph N/A   Clear
4:54 PM 93.0 °F 91.7 °F 57.0 °F 30% 29.99 in 10.0 mi South 16.1 mph 27.6 mph N/A   Clear
5:54 PM 91.9 °F 90.6 °F 57.0 °F 31% 29.99 in 10.0 mi South 17.3 mph 25.3 mph N/A   Clear
6:54 PM 91.0 °F 90.0 °F 57.9 °F 33% 29.99 in 10.0 mi SSE 15.0 mph 26.5 mph N/A   Clear
7:54 PM 88.0 °F 87.6 °F 60.1 °F 39% 29.99 in 10.0 mi South 16.1 mph 25.3 mph N/A   Clear
8:54 PM 82.9 °F 83.2 °F 60.1 °F 46% 30.01 in 10.0 mi SSE 9.2 mph - N/A   Clear
9:54 PM 80.1 °F 80.7 °F 59.0 °F 48% 30.03 in 10.0 mi SSE 10.4 mph - N/A   Clear
10:54 PM 79.0 °F - 61.0 °F 54% 30.04 in 10.0 mi SSE 11.5 mph - N/A   Clear
11:54 PM 77.0 °F - 61.0 °F 58% 30.05 in 10.0 mi SSE 11.5 mph - N/A   Clear